Time,TemperatureF,DewpointF,PressureIn,WindDirection,WindDirectionDegrees,WindSpeedMPH,WindSpeedGustMPH,Humidity,HourlyPrecipIn,Conditions,Clouds,dailyrainin,SoftwareType,DateUTC
2013-05-09 00:01:00,56.1,55.0,29.95,ESE,108,0.0,1.0,96,0.18,,,1.56,weatherlink.com 1.10,2013-05-09 04:01:00,
2013-05-09 00:16:00,56.1,55.0,29.95,ENE,57,0.0,1.0,96,0.01,,,1.57,weatherlink.com 1.10,2013-05-09 04:16:00,
2013-05-09 00:31:00,56.0,55.0,29.95,ENE,57,0.0,1.0,96,0.01,,,1.57,weatherlink.com 1.10,2013-05-09 04:31:00,
2013-05-09 00:46:00,56.1,55.0,29.94,ENE,57,0.0,0.0,97,0.01,,,1.57,weatherlink.com 1.10,2013-05-09 04:46:00,
2013-05-09 01:01:00,55.9,55.0,29.94,ENE,66,0.0,1.0,96,0.01,,,1.57,weatherlink.com 1.10,2013-05-09 05:01:00,
2013-05-09 01:16:00,55.8,55.0,29.94,ENE,67,0.0,1.0,97,0.00,,,1.57,weatherlink.com 1.10,2013-05-09 05:16:00,
2013-05-09 01:31:00,55.6,55.0,29.93,ENE,67,0.0,0.0,97,0.00,,,1.57,weatherlink.com 1.10,2013-05-09 05:31:00,
2013-05-09 01:46:00,55.4,54.0,29.93,ENE,67,0.0,1.0,96,0.00,,,1.57,weatherlink.com 1.10,2013-05-09 05:46:00,
2013-05-09 02:01:00,55.3,55.0,29.93,East,82,0.0,2.0,97,0.00,,,1.57,weatherlink.com 1.10,2013-05-09 06:01:00,
2013-05-09 02:16:00,55.1,54.0,29.92,East,96,0.0,2.0,97,0.00,,,1.57,weatherlink.com 1.10,2013-05-09 06:16:00,
2013-05-09 02:31:00,54.9,54.0,29.92,East,96,0.0,2.0,97,0.00,,,1.57,weatherlink.com 1.10,2013-05-09 06:31:00,
2013-05-09 02:46:00,54.6,54.0,29.91,East,96,0.0,1.0,97,0.00,,,1.57,weatherlink.com 1.10,2013-05-09 06:46:00,
2013-05-09 03:01:00,54.4,54.0,29.92,East,96,0.0,0.0,97,0.01,,,1.58,weatherlink.com 1.10,2013-05-09 07:01:00,
2013-05-09 03:16:00,54.3,54.0,29.92,East,96,0.0,1.0,97,0.01,,,1.58,weatherlink.com 1.10,2013-05-09 07:16:00,
2013-05-09 03:31:00,54.2,53.0,29.91,East,96,0.0,0.0,97,0.01,,,1.58,weatherlink.com 1.10,2013-05-09 07:31:00,
2013-05-09 03:46:00,54.0,53.0,29.90,East,96,0.0,0.0,97,0.01,,,1.58,weatherlink.com 1.10,2013-05-09 07:46:00,
2013-05-09 04:01:00,54.0,53.0,29.90,East,96,0.0,0.0,97,0.00,,,1.58,weatherlink.com 1.10,2013-05-09 08:01:00,
2013-05-09 04:16:00,53.8,53.0,29.90,East,96,0.0,0.0,97,0.00,,,1.58,weatherlink.com 1.10,2013-05-09 08:16:00,
2013-05-09 04:31:00,53.8,53.0,29.90,East,96,0.0,0.0,97,0.00,,,1.58,weatherlink.com 1.10,2013-05-09 08:31:00,
2013-05-09 04:46:00,53.7,53.0,29.90,East,96,0.0,0.0,97,0.00,,,1.58,weatherlink.com 1.10,2013-05-09 08:46:00,
2013-05-09 05:01:00,53.6,53.0,29.90,East,96,0.0,0.0,97,0.00,,,1.58,weatherlink.com 1.10,2013-05-09 09:01:00,
2013-05-09 05:16:00,53.5,53.0,29.90,East,96,0.0,0.0,97,0.00,,,1.58,weatherlink.com 1.10,2013-05-09 09:16:00,
2013-05-09 05:31:00,53.4,53.0,29.90,East,100,0.0,1.0,97,0.00,,,1.58,weatherlink.com 1.10,2013-05-09 09:31:00,
2013-05-09 05:46:00,53.3,53.0,29.90,East,100,0.0,1.0,97,0.00,,,1.58,weatherlink.com 1.10,2013-05-09 09:46:00,
2013-05-09 06:01:00,53.3,53.0,29.91,East,100,0.0,1.0,97,0.00,,,1.58,weatherlink.com 1.10,2013-05-09 10:01:00,
2013-05-09 06:16:00,53.4,53.0,29.91,East,101,0.0,1.0,97,0.00,,,1.58,weatherlink.com 1.10,2013-05-09 10:16:00,
2013-05-09 06:31:00,53.6,53.0,29.92,East,101,0.0,1.0,97,0.00,,,0.00,weatherlink.com 1.10,2013-05-09 10:31:00,
2013-05-09 06:47:00,53.6,53.0,29.92,East,101,0.0,1.0,97,0.00,,,0.00,weatherlink.com 1.10,2013-05-09 10:47:00,
2013-05-09 07:02:00,53.8,53.0,29.92,East,98,0.0,1.0,97,0.01,,,0.01,weatherlink.com 1.10,2013-05-09 11:02:00,
2013-05-09 07:17:00,53.8,53.0,29.92,East,98,0.0,0.0,97,0.02,,,0.02,weatherlink.com 1.10,2013-05-09 11:17:00,
2013-05-09 07:32:00,53.9,53.0,29.92,East,98,0.0,0.0,97,0.02,,,0.02,weatherlink.com 1.10,2013-05-09 11:32:00,
2013-05-09 07:47:00,54.1,53.0,29.92,East,98,0.0,0.0,97,0.02,,,0.02,weatherlink.com 1.10,2013-05-09 11:47:00,
2013-05-09 08:02:00,54.3,54.0,29.92,East,98,0.0,0.0,97,0.01,,,0.02,weatherlink.com 1.10,2013-05-09 12:02:00,
2013-05-09 08:17:00,54.7,54.0,29.92,East,98,0.0,1.0,98,0.00,,,0.02,weatherlink.com 1.10,2013-05-09 12:17:00,
2013-05-09 08:32:00,54.8,54.0,29.92,ESE,102,2.0,2.0,97,0.00,,,0.02,weatherlink.com 1.10,2013-05-09 12:32:00,
2013-05-09 08:47:00,55.0,54.0,29.92,East,98,0.0,1.0,97,0.00,,,0.02,weatherlink.com 1.10,2013-05-09 12:47:00,
2013-05-09 09:02:00,55.3,55.0,29.92,ENE,59,2.0,2.0,98,0.00,,,0.02,weatherlink.com 1.10,2013-05-09 13:02:00,
2013-05-09 09:17:00,55.3,55.0,29.93,NE,52,0.0,2.0,98,0.00,,,0.02,weatherlink.com 1.10,2013-05-09 13:17:00,
2013-05-09 09:32:00,55.5,55.0,29.93,NE,52,0.0,0.0,97,0.00,,,0.02,weatherlink.com 1.10,2013-05-09 13:32:00,
2013-05-09 09:47:00,55.4,55.0,29.93,NE,52,0.0,0.0,97,0.00,,,0.02,weatherlink.com 1.10,2013-05-09 13:47:00,
2013-05-09 10:02:00,55.7,55.0,29.93,NE,50,0.0,1.0,97,0.00,,,0.02,weatherlink.com 1.10,2013-05-09 14:02:00,
2013-05-09 10:17:00,55.9,55.0,29.93,NW,312,1.0,2.0,97,0.00,,,0.02,weatherlink.com 1.10,2013-05-09 14:17:00,
2013-05-09 10:32:00,56.2,55.0,29.93,NW,307,1.0,2.0,97,0.00,,,0.02,weatherlink.com 1.10,2013-05-09 14:32:00,
2013-05-09 10:47:00,56.6,56.0,29.93,NW,311,1.0,2.0,97,0.00,,,0.02,weatherlink.com 1.10,2013-05-09 14:47:00,
2013-05-09 11:02:00,57.4,57.0,29.93,SE,124,1.0,2.0,97,0.00,,,0.02,weatherlink.com 1.10,2013-05-09 15:02:00,
2013-05-09 11:17:00,58.0,57.0,29.93,ESE,121,0.0,1.0,95,0.00,,,0.02,weatherlink.com 1.10,2013-05-09 15:17:00,
2013-05-09 11:32:00,59.4,57.0,29.93,SE,127,0.0,2.0,92,0.00,,,0.02,weatherlink.com 1.10,2013-05-09 15:32:00,
2013-05-09 11:47:00,60.7,57.0,29.92,SW,234,0.0,3.0,87,0.00,,,0.02,weatherlink.com 1.10,2013-05-09 15:47:00,
2013-05-09 12:02:00,60.9,56.0,29.92,WNW,300,0.0,3.0,85,0.00,,,0.02,weatherlink.com 1.10,2013-05-09 16:02:00,
2013-05-09 12:17:00,61.8,57.0,29.92,WSW,250,1.0,5.0,84,0.00,,,0.02,weatherlink.com 1.10,2013-05-09 16:17:00,
2013-05-09 12:32:00,62.2,57.0,29.91,North,5,1.0,5.0,82,0.00,,,0.02,weatherlink.com 1.10,2013-05-09 16:32:00,
2013-05-09 12:47:00,62.3,56.0,29.91,WSW,252,1.0,5.0,80,0.00,,,0.02,weatherlink.com 1.10,2013-05-09 16:47:00,
2013-05-09 13:02:00,64.5,58.0,29.90,NNE,16,1.0,5.0,78,0.00,,,0.02,weatherlink.com 1.10,2013-05-09 17:02:00,
2013-05-09 13:17:00,66.8,59.0,29.90,WSW,258,4.0,6.0,76,0.00,,,0.02,weatherlink.com 1.10,2013-05-09 17:17:00,
2013-05-09 13:32:00,67.9,56.0,29.90,WSW,245,2.0,8.0,67,0.00,,,0.02,weatherlink.com 1.10,2013-05-09 17:32:00,
2013-05-09 13:47:00,66.6,56.0,29.90,West,269,0.0,5.0,69,0.00,,,0.02,weatherlink.com 1.10,2013-05-09 17:47:00,
2013-05-09 14:02:00,67.6,57.0,29.89,WSW,244,2.0,5.0,68,0.00,,,0.02,weatherlink.com 1.10,2013-05-09 18:02:00,
2013-05-09 14:17:00,68.1,56.0,29.89,West,261,3.0,8.0,66,0.00,,,0.02,weatherlink.com 1.10,2013-05-09 18:17:00,
2013-05-09 14:32:00,66.5,57.0,29.89,SW,226,6.0,7.0,71,0.00,,,0.02,weatherlink.com 1.10,2013-05-09 18:32:00,
2013-05-09 14:47:00,65.6,56.0,29.89,WSW,242,5.0,9.0,70,0.00,,,0.02,weatherlink.com 1.10,2013-05-09 18:47:00,
2013-05-09 15:02:00,65.1,56.0,29.89,SW,227,4.0,5.0,72,0.00,,,0.02,weatherlink.com 1.10,2013-05-09 19:02:00,
2013-05-09 15:17:00,65.2,55.0,29.88,WSW,252,3.0,6.0,70,0.00,,,0.02,weatherlink.com 1.10,2013-05-09 19:17:00,
2013-05-09 15:33:00,65.7,56.0,29.88,SW,232,3.0,7.0,70,0.00,,,0.02,weatherlink.com 1.10,2013-05-09 19:33:00,
2013-05-09 15:48:00,65.6,56.0,29.88,SW,236,2.0,5.0,71,0.00,,,0.02,weatherlink.com 1.10,2013-05-09 19:48:00,
2013-05-09 16:03:00,65.6,57.0,29.88,WSW,251,2.0,4.0,73,0.00,,,0.02,weatherlink.com 1.10,2013-05-09 20:03:00,
2013-05-09 16:18:00,65.2,56.0,29.88,WSW,257,1.0,5.0,71,0.00,,,0.02,weatherlink.com 1.10,2013-05-09 20:18:00,
2013-05-09 16:33:00,65.0,56.0,29.87,WSW,237,0.0,4.0,73,0.00,,,0.02,weatherlink.com 1.10,2013-05-09 20:33:00,
2013-05-09 16:48:00,65.4,57.0,29.88,West,275,2.0,4.0,74,0.00,,,0.02,weatherlink.com 1.10,2013-05-09 20:48:00,
2013-05-09 17:03:00,66.0,57.0,29.87,West,259,2.0,4.0,72,0.00,,,0.02,weatherlink.com 1.10,2013-05-09 21:03:00,
2013-05-09 17:18:00,66.0,56.0,29.87,SW,214,0.0,4.0,71,0.00,,,0.02,weatherlink.com 1.10,2013-05-09 21:18:00,
2013-05-09 17:33:00,65.8,57.0,29.87,SW,232,0.0,3.0,72,0.00,,,0.02,weatherlink.com 1.10,2013-05-09 21:33:00,
2013-05-09 17:48:00,66.1,56.0,29.87,WSW,253,1.0,3.0,70,0.00,,,0.02,weatherlink.com 1.10,2013-05-09 21:48:00,
2013-05-09 18:03:00,66.6,56.0,29.87,West,272,1.0,3.0,69,0.00,,,0.02,weatherlink.com 1.10,2013-05-09 22:03:00,
2013-05-09 18:18:00,67.2,57.0,29.86,SW,229,1.0,3.0,69,0.00,,,0.02,weatherlink.com 1.10,2013-05-09 22:18:00,
2013-05-09 18:33:00,67.5,57.0,29.86,West,264,1.0,8.0,68,0.00,,,0.02,weatherlink.com 1.10,2013-05-09 22:33:00,
2013-05-09 18:48:00,67.1,56.0,29.87,SW,216,3.0,4.0,67,0.00,,,0.02,weatherlink.com 1.10,2013-05-09 22:48:00,
2013-05-09 19:03:00,66.4,56.0,29.87,SW,231,0.0,3.0,69,0.00,,,0.02,weatherlink.com 1.10,2013-05-09 23:03:00,
2013-05-09 19:18:00,65.5,57.0,29.88,SW,231,0.0,1.0,75,0.00,,,0.02,weatherlink.com 1.10,2013-05-09 23:18:00,
2013-05-09 19:33:00,64.3,58.0,29.89,SW,231,0.0,0.0,79,0.00,,,0.02,weatherlink.com 1.10,2013-05-09 23:33:00,
2013-05-09 19:48:00,63.7,57.0,29.89,SW,231,0.0,0.0,80,0.00,,,0.02,weatherlink.com 1.10,2013-05-09 23:48:00,
2013-05-09 20:03:00,63.4,58.0,29.89,SW,231,0.0,0.0,82,0.00,,,0.02,weatherlink.com 1.10,2013-05-10 00:03:00,
2013-05-09 20:18:00,62.4,58.0,29.90,SW,231,0.0,0.0,85,0.00,,,0.02,weatherlink.com 1.10,2013-05-10 00:18:00,
2013-05-09 20:33:00,61.8,58.0,29.90,SW,231,0.0,0.0,86,0.00,,,0.02,weatherlink.com 1.10,2013-05-10 00:33:00,
2013-05-09 20:48:00,59.9,56.0,29.91,SSE,157,0.0,2.0,88,0.00,,,0.02,weatherlink.com 1.10,2013-05-10 00:48:00,
2013-05-09 21:03:00,58.8,56.0,29.91,SSE,157,0.0,1.0,90,0.00,,,0.02,weatherlink.com 1.10,2013-05-10 01:03:00,
2013-05-09 21:18:00,58.1,56.0,29.91,SSE,157,0.0,0.0,91,0.00,,,0.02,weatherlink.com 1.10,2013-05-10 01:18:00,
2013-05-09 21:33:00,57.4,55.0,29.91,SSE,157,0.0,1.0,92,0.00,,,0.02,weatherlink.com 1.10,2013-05-10 01:33:00,
2013-05-09 21:48:00,56.7,55.0,29.92,SE,140,0.0,2.0,93,0.00,,,0.02,weatherlink.com 1.10,2013-05-10 01:48:00,
2013-05-09 22:03:00,56.2,54.0,29.92,SE,140,0.0,1.0,93,0.00,,,0.02,weatherlink.com 1.10,2013-05-10 02:03:00,
2013-05-09 22:18:00,55.7,54.0,29.92,SE,139,0.0,2.0,94,0.00,,,0.02,weatherlink.com 1.10,2013-05-10 02:18:00,
2013-05-09 22:33:00,55.5,54.0,29.93,SE,139,1.0,1.0,94,0.00,,,0.02,weatherlink.com 1.10,2013-05-10 02:33:00,
2013-05-09 22:48:00,55.3,54.0,29.93,SE,140,0.0,0.0,94,0.00,,,0.02,weatherlink.com 1.10,2013-05-10 02:48:00,
2013-05-09 23:03:00,54.9,54.0,29.93,SE,140,0.0,1.0,95,0.00,,,0.02,weatherlink.com 1.10,2013-05-10 03:03:00,
2013-05-09 23:18:00,54.4,53.0,29.93,SE,140,0.0,1.0,95,0.00,,,0.02,weatherlink.com 1.10,2013-05-10 03:18:00,
2013-05-09 23:33:00,53.9,53.0,29.93,SE,140,0.0,1.0,95,0.00,,,0.02,weatherlink.com 1.10,2013-05-10 03:33:00,
2013-05-09 23:48:00,53.9,53.0,29.93,SE,140,0.0,0.0,95,0.00,,,0.02,weatherlink.com 1.10,2013-05-10 03:48:00,